Regional Weather Roundup
Issued by NWS Huntsville, AL

Home | Current Version | Previous Version | Text Only | Print | Product List | Glossary On
Versions: 1 2 3 4 5 6 7 8 9 10 11 12 13 14 15 16 17 18 19 20 21 22 23 24 25 26 27
000
ASUS44 KHUN 221410
RWRHUN

WEATHER ROUNDUP FOR THE TENNESSEE VALLEY
NATIONAL WEATHER SERVICE HUNTSVILLE AL
800 AM CST WED NOV 22 2017

ALZ001>004-221500-
NORTHWEST ALABAMA

CITY           SKY/WX    TMP DP  RH WIND       PRES   REMARKS
COURTLAND HCN    N/A     39 N/A N/A N3          N/A
RUSSELLVILLE     N/A     39 N/A N/A MISG        N/A
SHOALS AIRPORT SUNNY     41  28  60 N10       30.26R
SHOALS TVA RES   N/A     39 N/A N/A MISG        N/A
$$

ALZ005>007-016-221500-
NORTH CENTRAL ALABAMA

CITY           SKY/WX    TMP DP  RH WIND       PRES   REMARKS
CULLMAN AG STN   N/A     41 N/A N/A N10         N/A
DECATUR AP     SUNNY     40  33  76 N13       30.23R WCI  32
HUNTSVILLE AP  SUNNY     42  34  73 N10       30.22R
MERIDIANVILLE  SUNNY     39  32  75 N13       30.22R WCI  32
REDSTONE ARSN  SUNNY     40  32  75 NE14      30.20R WCI  32
VINEMONT AP    FAIR      40  34  78 N10G16    30.20R WCI  34
$$

ALZ008>010-221500-
NORTHEAST ALABAMA

CITY           SKY/WX    TMP DP  RH WIND       PRES   REMARKS
ALBERTVILLE    SUNNY     43  41  93 N12       30.15R
FORT PAYNE     SUNNY     39  36  87 NE3       30.16R
SCOTTSBORO AP  SUNNY     45  37  76 N8G18     30.19R
SCOTTSBORO HCN   N/A     43 N/A N/A MISG        N/A
VALLEY HEAD      N/A     34 N/A N/A MISG        N/A
$$

TNZ076-096-097-221500-
SOUTHEASTERN MIDDLE TENNESSEE

CITY           SKY/WX    TMP DP  RH WIND       PRES   REMARKS
TULLAHOMA      PTSUNNY   36  32  87 N10       30.22R WCI  28
WINCHESTER     CLOUDY    37  34  87 N8        30.22S WCI  31
$$

...SURROUNDING SITES...

CITY           SKY/WX    TMP DP  RH WIND       PRES   REMARKS
ATLANTA        MOSUNNY   50  42  74 NW12      30.07R
ANNISTON       SUNNY     49  39  68 VRB5      30.13R
BIRMINGHAM     MOSUNNY   46  37  71 N13       30.18R
CHATTANOOGA    MOSUNNY   47  35  63 N15G22    30.18R
CORINTH        FAIR      37  27  65 N10G18    30.29R WCI  30
DALTON         SUNNY     46  36  66 N12G21    30.15R
GADSDEN        SUNNY     46  41  82 N7        30.16R
GOLDEN TRNGL   SUNNY     43  35  73 N16       30.23R
HALEYVILLE     FAIR      39  33  79 N13G18    30.22R WCI  31
JACKSON TN     SUNNY     34  24  67 N13       30.34R WCI  25
MEMPHIS        MOSUNNY   35  24  64 NE13G21   30.34R WCI  26
NASHVILLE      MOSUNNY   35  25  66 N12       30.30R WCI  27
OXFORD MS      FAIR      36  25  64 N8G18     30.30R WCI  29
ROME           SUNNY     51  38  60 N6        30.13R
SAVANNAH       SUNNY     36  27  69 N15       30.28R WCI  26
SELMER         SUNNY     34  25  69 N15       30.29R WCI  24
TUPELO         SUNNY     40  27  59 N16G25    30.27R WCI  31
TUSCALOOSA     SUNNY     47  40  76 N10       30.18R
$$

...GULF COAST WEATHER...

CITY           SKY/WX    TMP DP  RH WIND       PRES   REMARKS
GULFPORT       CLOUDY    54  41  61 N10       30.10R
PASCAGOULA     MOSUNNY   52  41  66 N9        30.10R
MOBILE         PTSUNNY   52  39  61 N14       30.10R
GULF SHORES    CLOUDY    53  42  66 N7        30.06R
PENSACOLA      PTSUNNY   54  41  61 N9        30.04R
DESTIN         MOSUNNY   61  47  59 N8        30.02R
PANAMA CITY    PTSUNNY   63  61  91 NE8       30.00S
APPALACHICOLA  FOG       61  61 100 NE10      29.98R VSB 3/4
$$





USA.gov is the U.S. government's official web portal to all federal, state and local government web resources and services.